XMM-NEWTON

Last updated on Sat Jul 05 2025 00:03:30 GMT+0000 (Coordinated Universal Time)

1 25989U 99066A 25187.32048117 .00000064 00000+0 00000+0 0 9990 2 25989 66.1667 287.5591 4833397 70.9452 0.1420 0.50136335 21273
UTC large
Height (km)
Speed (km/s)
/
Latitude / Longitude
Inclination (degrees)
Orbital Period (minutes)
Azimuth
Elevation
Range (km)
Doppler Factor

Next 0 passes for location: London (51.5072 / 0.1276)

Sorry there are no passes over London.